Location: Unnamed
(45.3580°N, 90.2245°W)
Time: 17:53:52
(UTC-05:00)

Envisat - Pass Details

Date: 06 March 2021
Orbit: 764 x 766 km, 98.1° (Epoch: 12 April)

Event Time Altitude Azimuth Distance (km) Brightness Sun altitude
Rises 18:25:26 0° 222° (SW) 3,223 7.0 -6.1°
Reaches altitude 10° 18:29:44 10° 258° (WSW) 2,305 7.1 -6.9°
Maximum altitude 18:31:08 11° 274° (W) 2,234 7.2 -7.1°
Drops below altitude 10° 18:32:32 10° 290° (WNW) 2,309 6.8 -7.3°
Sets 18:36:52 0° 325° (NW) 3,243 6.8 -8.1°
